Kezdőlap
METAR-TAF:

METAR-TAF

Repülőterek :

Municipal_Airport

Cherokee, Iowa, Amerikai Egyesült Államok

földrajzi szélesség: 42-43-54N, földrajzi hosszúság: 095-33-21W, magasság: 374 m

Jelenlegi meteorológiai megfigyelések

A jelentés 27 perccel ezelõtt készült, 02:55 UTC
Dél-délnyugati szél 3 kt
Hőmérséklet -1°C
Páratartalom 80%
Légköri nyomás 1019 hPa
Látótávolság: 16.1 km
Szórványos felhőzet 3100 lábon
Borult 3900 lábon

METAR: KCKP 280255Z AUTO 21003KT 10SM SCT031 OVC039 M01/M04 A3009 RMK AO2 T10081040

Idő: 21:22 (03:22 UTC)


TAF: hiányzik

Meteorológiai megfigyelések és előrejelzések több, mint 4000 repülőtéren (METAR és TAF jelentéseket).

A térképen piros és sárga pontok jelzik az elérhető meteorológiai állomásokat.

Mozgassa az egeret a pont fölött, hogy megjelenjen az állomás neve.

Azután kattintson az időjárási megfigyelések és előrejelzések megtekintéséhez.

A térkép megváltoztatása: kattintson a fekete keresztel jelölt zöld gombra ráközelítéshez, a vonallal jelölt zöld gombra távolításhoz, vagy a zöld nyilakra a szomszédos térképek eléréséhez.


METAR-TAF: